[[{"header":{"parameterUnit":"m.s-1","parameterCategory":1,"la1":30.2991,"la2":30.254,"lo1":-89.0895,"lo2":-89.0444,"dy":0.0017,"dx":0.0017,"nx":28,"ny":28,"refTime":"2024-10-20T03:00:00:Z","depth":0,"parameterNumber":2,"parameterNumberName":"U-component_of_WINDS"},"data":[0,0,0,0,0,0,0,0,0,0,0,0,0,0,0,0,0,0,0,0,0,0,0,0,0,0,0,0,0,0,0,0,0,0,0,0,0,0,0,0,0,0,0,0,0,0,0,0,0,0,0,0,0,0,0,0,0,0,-1.9897,-1.9896,0,-1.9842,-1.9842,-1.9841,-1.9771,-1.977,-1.9769,-1.9768,-1.9713,-1.9713,-1.9713,0,0,0,0,0,0,0,0,0,0,0,0,0,-1.9944,-1.9943,-1.9897,-1.9896,-1.9896,-1.9843,-1.9842,-1.9841,-1.9771,-1.977,-1.9768,-1.9767,-1.9714,-1.9713,-1.9713,0,0,0,0,0,0,0,0,0,0,0,0,0,-1.991,-1.9943,-1.9897,-1.9854,-1.985,-1.9843,-1.9842,-1.9841,-1.9771,-1.977,-1.9768,-1.9766,-1.9714,-1.9713,-1.9713,-1.9743,0,0,-1.9711,-1.9711,0,0,0,0,0,0,0,0,-1.9912,-1.9908,-1.9861,-1.9857,-1.9852,-1.9812,-1.9838,-1.9808,-1.9772,-1.9801,-1.9768,-1.9766,-1.9748,-1.9744,-1.9738,-1.9741,-1.9739,-1.9711,-1.971,-1.971,-1.971,0,0,0,0,0,0,0,-1.9914,-1.991,-1.9875,-1.9861,-1.9855,-1.9839,-1.9832,-1.9832,-1.9785,-1.9799,-1.9793,-1.9788,-1.9745,-1.9738,-1.9736,-1.9738,-1.9711,-1.971,-1.971,-1.971,-1.9767,-1.9769,0,0,0,0,0,0,-1.9923,-1.9913,-1.9877,-1.9874,-1.9878,-1.9839,-1.9832,-1.9827,-1.9785,-1.9777,-1.9789,-1.9785,-1.974,-1.9737,-1.9734,-1.977,-1.971,-1.971,-1.9709,-1.9766,-1.9768,-1.977,0,0,0,0,0,0,-1.9924,-1.992,-1.9879,-1.9892,-1.9885,-1.984,-1.9835,-1.9826,-1.982,-1.9778,-1.9769,-1.9791,-1.9739,-1.9735,-1.9742,-1.9767,-1.9709,-1.9709,-1.9763,-1.9766,-1.9769,-1.9841,0,0,0,0,0,0,-1.9926,-1.9921,-1.9931,-1.9892,-1.9885,-1.9888,-1.9836,-1.9827,-1.9819,-1.9812,-1.9777,-1.977,-1.9737,-1.9744,-1.9742,-1.9765,-1.9709,-1.9761,-1.9765,-1.9768,-1.9837,-1.9846,-1.9855,0,0,0,0,0,-1.9927,-1.9954,-1.9932,-1.9928,-1.9897,-1.9889,-1.9885,-1.9847,-1.9821,-1.9832,-1.9805,-1.9771,-1.9764,-1.9745,-1.9742,-1.9766,-1.9759,-1.9764,-1.9768,-1.9833,-1.9844,-1.9854,0,0,0,0,0,0,-1.9996,-1.9948,-1.9923,-1.9937,-1.9918,-1.9878,-1.989,-1.986,-1.9848,-1.9842,-1.9795,-1.9788,-1.9803,-1.9784,-1.9764,-1.9796,-1.9757,-1.9761,-1.9807,-1.9818,-1.9827,-1.9832,-1.9708,0,0,0,0,0,-2.0013,-2.0011,-1.9968,-1.9985,-1.9976,-1.9935,-1.993,-1.9903,-1.9881,-1.9873,-1.9846,-1.9827,-1.9821,-1.9818,-1.981,-1.9833,-1.9826,-1.9848,-1.9857,-1.9865,-1.987,-1.9884,-1.9895,-1.9784,-1.9784,-1.9784,0,0,-2.0048,-2.0021,-2.0022,-1.9998,-1.998,-1.998,-1.9929,-1.993,-1.993,-1.9873,-1.9879,-1.986,-1.9835,-1.9852,-1.9858,-1.9838,-1.9899,-1.987,-1.9877,-1.9877,-1.989,-1.9901,-1.991,-1.9786,-1.9786,-1.9786,0,0,-2.0112,-2.009,-2.0103,-2.0086,-2.006,-2.0032,-2.0036,-2.0,-1.9985,-1.9991,-1.9949,-1.9948,-1.9938,-1.9924,-1.9915,-1.9976,-1.9946,-1.9975,-2.0023,-2.0038,-2.0047,-2.0054,-2.008,-2.0089,-1.9979,-1.9979,-1.9979,0,-2.0159,-2.0157,-2.0114,-2.0119,-2.0111,-2.0059,-2.0073,-2.0059,-2.0031,-2.0028,-2.0005,-1.9993,-1.9972,-1.9987,-2.0002,-1.9996,-2.0,-1.998,-2.0049,-2.0056,-2.0062,-2.0086,-2.0095,-1.9983,-1.9983,-1.9982,-1.9982,0,-2.0218,-2.0217,-2.023,-2.0206,-2.0199,-2.0209,-2.0169,-2.0167,-2.014,-2.0116,-2.0125,-2.0098,-2.0086,-2.0087,-2.006,-2.0098,-2.0087,-2.0057,-2.0018,-2.0078,-2.01,-2.0108,-1.9989,-1.9988,-1.9986,-1.9985,0,0,-2.0324,-2.0277,-2.0283,-2.0273,-2.024,-2.0239,-2.0247,-2.0235,-2.0236,-2.0219,-2.0227,-2.022,-2.0193,-2.0183,-2.0155,-2.0167,-2.0222,-2.0136,-2.0135,-2.0156,-2.0267,-2.0293,-2.0304,-2.0201,-2.0202,-2.0203,-2.0271,0,-2.0384,-2.0396,-2.0358,-2.038,-2.038,-2.0332,-2.0339,-2.0322,-2.03,-2.0298,-2.0273,-2.0271,-2.0233,-2.0228,-2.0238,-2.0214,-2.0245,-2.0208,-2.021,-2.0211,-2.0221,-2.0314,-2.034,-2.0405,-2.0279,-2.028,-2.0281,0,-2.0456,-2.0445,-2.0466,-2.0436,-2.0434,-2.0442,-2.0429,-2.0427,-2.0407,-2.039,-2.0381,-2.0348,-2.0356,-2.0316,-2.0328,-2.0304,-2.0303,-2.0291,-2.0293,-2.0294,-2.0252,-2.0321,-2.0424,-2.0436,-2.0293,-2.0292,-2.0291,0,-2.0537,-2.0525,-2.0538,-2.053,-2.0493,-2.05,-2.0486,-2.0463,-2.0459,-2.0448,-2.0446,-2.0436,-2.0431,-2.0425,-2.0391,-2.0365,-2.0409,-2.0366,-2.0398,-2.0399,-2.0411,-2.0412,-2.0519,-2.0405,-2.0405,-2.0405,-2.0405,0,-2.061,-2.0626,-2.0574,-2.0582,-2.06,-2.0557,-2.0576,-2.0556,-2.0537,-2.0542,-2.0498,-2.0504,-2.0458,-2.0459,-2.0432,-2.0449,-2.0446,-2.0435,-2.0428,-2.0441,-2.0443,-2.0441,-2.0437,-2.0408,-2.0407,-2.0406,-2.0406,0,-2.0703,-2.0668,-2.0679,-2.0644,-2.0636,-2.0651,-2.0622,-2.0629,-2.0604,-2.0611,-2.061,-2.0572,-2.0572,-2.0537,-2.0529,-2.0511,-2.054,-2.0523,-2.0548,-2.0544,-2.0579,-2.0578,-2.0692,-2.0707,-2.0581,-2.0582,-2.0583,0,-2.0754,-2.0765,-2.0732,-2.0732,-2.072,-2.072,-2.0716,-2.0675,-2.0673,-2.0652,-2.0663,-2.0659,-2.0654,-2.0655,-2.0628,-2.0623,-2.0608,-2.0648,-2.0607,-2.062,-2.0613,-2.0614,-2.0617,-2.0658,-2.066,-2.0661,-2.0662,0,-2.0849,-2.0831,-2.0827,-2.0818,-2.0815,-2.0805,-2.0793,-2.0796,-2.0751,-2.0752,-2.0751,-2.0747,-2.074,-2.0738,-2.0727,-2.0713,-2.0682,-2.0675,-2.0683,-2.0697,-2.0712,-2.0709,-2.0575,-2.0673,-2.0672,-2.0671,-2.0671,-2.067,-2.0924,-2.0934,-2.0913,-2.0911,-2.0897,-2.0888,-2.0894,-2.087,-2.0869,-2.086,-2.0835,-2.084,-2.0822,-2.0805,-2.0794,-2.0798,-2.0778,-2.0788,-2.0792,-2.0796,-2.0804,-2.0709,-2.0796,-2.0795,-2.0795,-2.0794,-2.0794,0,-2.102,-2.1005,-2.1003,-2.0988,-2.0987,-2.0956,-2.0942,-2.0943,-2.0948,-2.0933,-2.0929,-2.093,-2.0928,-2.0901,-2.0897,-2.0906,-2.0891,-2.0906,-2.0907,-2.0905,-2.082,-2.0816,-2.0918,-2.0918,-2.0918,-2.0918,-2.0918,-2.0918,-2.107,-2.1086,-2.1067,-2.1076,-2.106,-2.1064,-2.1059,-2.1051,-2.104,-2.1043,-2.1041,-2.1023,-2.1005,-2.0999,-2.0997,-2.0989,-2.0992,-2.1012,-2.1,-2.0922,-2.0911,-2.0899,-2.0895,-2.1012,-2.1012,-2.1085,-2.1086,-2.1086]},{"header":{"parameterUnit":"m.s-1","parameterCategory":1,"la1":30.2991,"la2":30.254,"lo1":-89.0895,"lo2":-89.0444,"dy":0.0017,"dx":0.0017,"nx":28,"ny":28,"refTime":"2024-10-20T03:00:00:Z","depth":0,"parameterNumber":3,"parameterNumberName":"V-component_of_WINDS"},"data":[0,0,0,0,0,0,0,0,0,0,0,0,0,0,0,0,0,0,0,0,0,0,0,0,0,0,0,0,0,0,0,0,0,0,0,0,0,0,0,0,0,0,0,0,0,0,0,0,0,0,0,0,0,0,0,0,0,0,-0.1356,-0.1356,0,-0.1351,-0.1351,-0.1351,-0.135,-0.135,-0.135,-0.135,-0.1346,-0.1346,-0.1346,0,0,0,0,0,0,0,0,0,0,0,0,0,-0.1368,-0.1368,-0.1356,-0.1356,-0.1356,-0.1351,-0.1351,-0.1351,-0.135,-0.135,-0.135,-0.135,-0.1346,-0.1346,-0.1346,0,0,0,0,0,0,0,0,0,0,0,0,0,-0.1363,-0.1368,-0.1356,-0.1355,-0.1355,-0.1351,-0.1351,-0.1351,-0.135,-0.135,-0.135,-0.135,-0.1346,-0.1346,-0.1346,-0.1343,0,0,-0.1345,-0.1345,0,0,0,0,0,0,0,0,-0.1363,-0.1362,-0.1355,-0.1355,-0.1355,-0.1351,-0.1354,-0.1348,-0.135,-0.1352,-0.135,-0.135,-0.1348,-0.1347,-0.1346,-0.1343,-0.1343,-0.1345,-0.1345,-0.1345,-0.1345,0,0,0,0,0,0,0,-0.1364,-0.1363,-0.1354,-0.1355,-0.1355,-0.1355,-0.1355,-0.1352,-0.1349,-0.1351,-0.1351,-0.1351,-0.1348,-0.1346,-0.1346,-0.1343,-0.1345,-0.1345,-0.1345,-0.1345,-0.1339,-0.1339,0,0,0,0,0,0,-0.1364,-0.1363,-0.1354,-0.1354,-0.1359,-0.1355,-0.1354,-0.1352,-0.1349,-0.1349,-0.1351,-0.1351,-0.1347,-0.1346,-0.1346,-0.1344,-0.1345,-0.1345,-0.1344,-0.1339,-0.1339,-0.1339,0,0,0,0,0,0,-0.1364,-0.1363,-0.1354,-0.1358,-0.1357,-0.1355,-0.1352,-0.1352,-0.1351,-0.1349,-0.1348,-0.135,-0.1347,-0.1346,-0.1344,-0.1344,-0.1344,-0.1344,-0.1339,-0.1339,-0.1339,-0.134,0,0,0,0,0,0,-0.1364,-0.1363,-0.1361,-0.1358,-0.1357,-0.1352,-0.1352,-0.1352,-0.135,-0.135,-0.1348,-0.1348,-0.1347,-0.1345,-0.1344,-0.1344,-0.1344,-0.1339,-0.1339,-0.1339,-0.134,-0.134,-0.134,0,0,0,0,0,-0.1365,-0.1362,-0.1361,-0.136,-0.1355,-0.1352,-0.1351,-0.135,-0.135,-0.1349,-0.1348,-0.1348,-0.1344,-0.1344,-0.1344,-0.1343,-0.134,-0.1339,-0.1339,-0.134,-0.134,-0.134,0,0,0,0,0,0,-0.1365,-0.1361,-0.1361,-0.1356,-0.1354,-0.1352,-0.135,-0.1349,-0.1348,-0.1348,-0.1347,-0.1346,-0.1345,-0.1344,-0.1344,-0.1342,-0.1342,-0.1342,-0.1342,-0.1342,-0.1342,-0.1343,-0.1344,0,0,0,0,0,-0.1364,-0.1361,-0.1359,-0.1355,-0.1354,-0.1352,-0.1351,-0.135,-0.1348,-0.1347,-0.1346,-0.1345,-0.1344,-0.1343,-0.1342,-0.134,-0.134,-0.1339,-0.1339,-0.1339,-0.1339,-0.134,-0.134,-0.1339,-0.1339,-0.1339,0,0,-0.1363,-0.1361,-0.1359,-0.1355,-0.1353,-0.1351,-0.1351,-0.1349,-0.1348,-0.1347,-0.1345,-0.1345,-0.1344,-0.1342,-0.1341,-0.1341,-0.134,-0.1339,-0.1339,-0.1339,-0.134,-0.134,-0.134,-0.1339,-0.1339,-0.1339,0,0,-0.136,-0.1357,-0.1355,-0.1353,-0.1351,-0.135,-0.135,-0.1347,-0.1347,-0.1345,-0.1345,-0.1344,-0.1342,-0.1341,-0.1341,-0.134,-0.134,-0.1339,-0.1339,-0.134,-0.134,-0.134,-0.1341,-0.1341,-0.1339,-0.1339,-0.1339,0,-0.1359,-0.1355,-0.1353,-0.1351,-0.135,-0.135,-0.1348,-0.1347,-0.1345,-0.1344,-0.1344,-0.1342,-0.1341,-0.1341,-0.1341,-0.134,-0.134,-0.134,-0.134,-0.134,-0.134,-0.1341,-0.1341,-0.1339,-0.1339,-0.1339,-0.1339,0,-0.1354,-0.1352,-0.1351,-0.1348,-0.1347,-0.1345,-0.1345,-0.1344,-0.1344,-0.1343,-0.1342,-0.1341,-0.1341,-0.134,-0.134,-0.134,-0.134,-0.134,-0.134,-0.134,-0.1341,-0.1341,-0.1339,-0.1339,-0.1339,-0.1339,0,0,-0.135,-0.1348,-0.1348,-0.1347,-0.1346,-0.1344,-0.1343,-0.1342,-0.1342,-0.1341,-0.1341,-0.134,-0.134,-0.134,-0.134,-0.134,-0.1341,-0.134,-0.134,-0.1341,-0.1343,-0.1343,-0.1343,-0.1341,-0.1341,-0.1341,-0.1343,0,-0.1347,-0.1345,-0.1344,-0.1342,-0.1341,-0.1341,-0.1341,-0.134,-0.134,-0.134,-0.134,-0.134,-0.134,-0.134,-0.134,-0.1341,-0.1342,-0.1341,-0.1342,-0.1342,-0.1343,-0.1344,-0.1344,-0.1345,-0.1343,-0.1343,-0.1343,0,-0.1344,-0.1343,-0.1341,-0.1341,-0.134,-0.1339,-0.134,-0.1339,-0.1339,-0.1339,-0.134,-0.134,-0.134,-0.134,-0.1342,-0.1341,-0.1342,-0.1343,-0.1343,-0.1343,-0.1343,-0.1345,-0.1346,-0.1346,-0.1344,-0.1344,-0.1344,0,-0.1342,-0.134,-0.1339,-0.1339,-0.1339,-0.1338,-0.1338,-0.1339,-0.1339,-0.1339,-0.1339,-0.134,-0.134,-0.1341,-0.1342,-0.1342,-0.1344,-0.1344,-0.1345,-0.1345,-0.1346,-0.1346,-0.1347,-0.1345,-0.1345,-0.1345,-0.1345,0,-0.1339,-0.1338,-0.1339,-0.1338,-0.1338,-0.1338,-0.1338,-0.1338,-0.1338,-0.1339,-0.1339,-0.134,-0.1341,-0.1342,-0.1343,-0.1345,-0.1345,-0.1346,-0.1346,-0.1346,-0.1346,-0.1346,-0.1347,-0.1345,-0.1345,-0.1345,-0.1345,0,-0.1337,-0.1337,-0.1336,-0.1337,-0.1337,-0.1337,-0.1337,-0.1337,-0.1338,-0.1339,-0.1339,-0.134,-0.1341,-0.1343,-0.1344,-0.1345,-0.1347,-0.1347,-0.1347,-0.1347,-0.1349,-0.1349,-0.1351,-0.1352,-0.1349,-0.1349,-0.1349,0,-0.1336,-0.1335,-0.1336,-0.1336,-0.1336,-0.1336,-0.1336,-0.1337,-0.1338,-0.1339,-0.1339,-0.1341,-0.1342,-0.1345,-0.1346,-0.1348,-0.1349,-0.1349,-0.1349,-0.1349,-0.135,-0.135,-0.1351,-0.1349,-0.1349,-0.135,-0.135,0,-0.1334,-0.1334,-0.1334,-0.1335,-0.1335,-0.1336,-0.1336,-0.1337,-0.1338,-0.1339,-0.134,-0.1341,-0.1343,-0.1345,-0.1348,-0.1349,-0.135,-0.135,-0.135,-0.135,-0.1351,-0.1352,-0.1348,-0.135,-0.135,-0.135,-0.135,-0.135,-0.1332,-0.1332,-0.1333,-0.1334,-0.1334,-0.1335,-0.1336,-0.1337,-0.1338,-0.134,-0.134,-0.1342,-0.1345,-0.1348,-0.1349,-0.1352,-0.1352,-0.1352,-0.1352,-0.1353,-0.1353,-0.135,-0.1352,-0.1352,-0.1352,-0.1352,-0.1352,0,-0.1331,-0.1332,-0.1332,-0.1333,-0.1334,-0.1335,-0.1336,-0.1337,-0.1339,-0.134,-0.1342,-0.1345,-0.1347,-0.1349,-0.1352,-0.1354,-0.1354,-0.1354,-0.1354,-0.1355,-0.1352,-0.1352,-0.1354,-0.1354,-0.1354,-0.1354,-0.1354,-0.1354,-0.133,-0.1331,-0.1332,-0.1333,-0.1334,-0.1336,-0.1337,-0.1338,-0.134,-0.1343,-0.1345,-0.1346,-0.1348,-0.1352,-0.1354,-0.1355,-0.1357,-0.1357,-0.1358,-0.1355,-0.1355,-0.1355,-0.1354,-0.1357,-0.1357,-0.136,-0.136,-0.136]}]]